Year,Month,Day,Hour,Minute,Value (Times are PST for temperature in C)
2013,10,14,00,00,7.40
2013,10,14,00,01,7.40
2013,10,14,00,02,7.40
2013,10,14,00,03,7.40
2013,10,14,00,04,7.40
2013,10,14,00,05,7.40
2013,10,14,00,06,7.40
2013,10,14,00,07,7.40
2013,10,14,00,08,7.40
2013,10,14,00,09,7.40
2013,10,14,00,10,7.40
2013,10,14,00,11,7.40
2013,10,14,00,12,7.40
2013,10,14,00,13,7.50
2013,10,14,00,14,7.50
2013,10,14,00,15,7.50
2013,10,14,00,16,7.50
2013,10,14,00,17,7.50
2013,10,14,00,18,7.50
2013,10,14,00,19,7.50
2013,10,14,00,20,7.40
2013,10,14,00,21,7.40
2013,10,14,00,22,7.40
2013,10,14,00,23,7.40
2013,10,14,00,24,7.40
2013,10,14,00,25,7.40
2013,10,14,00,26,7.40
2013,10,14,00,27,7.40
2013,10,14,00,28,7.40
2013,10,14,00,29,7.40
2013,10,14,00,30,7.40
2013,10,14,00,31,7.40
2013,10,14,00,32,7.40
2013,10,14,00,33,7.40
2013,10,14,00,34,7.40
2013,10,14,00,35,7.40
2013,10,14,00,36,7.40
2013,10,14,00,37,7.40
2013,10,14,00,38,7.40
2013,10,14,00,39,7.40
2013,10,14,00,40,7.40
2013,10,14,00,41,7.40
2013,10,14,00,42,7.40
2013,10,14,00,43,7.40
2013,10,14,00,44,7.40
2013,10,14,00,45,7.40
2013,10,14,00,46,7.40
2013,10,14,00,47,7.40
2013,10,14,00,48,7.40
2013,10,14,00,49,7.40
2013,10,14,00,50,7.40
2013,10,14,00,51,7.40
2013,10,14,00,52,7.40
2013,10,14,00,53,7.30
2013,10,14,00,54,7.30
2013,10,14,00,55,7.40
2013,10,14,00,56,7.40
2013,10,14,00,57,7.40
2013,10,14,00,58,7.40
2013,10,14,00,59,7.40
2013,10,14,01,00,7.40
2013,10,14,01,01,7.40
2013,10,14,01,02,7.40
2013,10,14,01,03,7.50
2013,10,14,01,04,7.50
2013,10,14,01,05,7.50
2013,10,14,01,06,7.50
2013,10,14,01,07,7.50
2013,10,14,01,08,7.50
2013,10,14,01,09,7.50
2013,10,14,01,10,7.50
2013,10,14,01,11,7.50
2013,10,14,01,12,7.50
2013,10,14,01,13,7.50
2013,10,14,01,14,7.50
2013,10,14,01,15,7.40
2013,10,14,01,16,7.40
2013,10,14,01,17,7.40
2013,10,14,01,18,7.40
2013,10,14,01,19,7.40
2013,10,14,01,20,7.40
2013,10,14,01,21,7.40
2013,10,14,01,22,7.40
2013,10,14,01,23,7.30
2013,10,14,01,24,7.30
2013,10,14,01,25,7.30
2013,10,14,01,26,7.30
2013,10,14,01,27,7.30
2013,10,14,01,28,7.30
2013,10,14,01,29,7.30
2013,10,14,01,30,7.30
2013,10,14,01,31,7.20
2013,10,14,01,32,7.20
2013,10,14,01,33,7.20
2013,10,14,01,34,7.20
2013,10,14,01,35,7.20
2013,10,14,01,36,7.20
2013,10,14,01,37,7.20
2013,10,14,01,38,7.20
2013,10,14,01,39,7.20
2013,10,14,01,40,7.20
2013,10,14,01,41,7.20
2013,10,14,01,42,7.20
2013,10,14,01,43,7.20
2013,10,14,01,44,7.20
2013,10,14,01,45,7.20
2013,10,14,01,46,7.20
2013,10,14,01,47,7.20
2013,10,14,01,48,7.20
2013,10,14,01,49,7.20
2013,10,14,01,50,7.20
2013,10,14,01,51,7.20
2013,10,14,01,52,7.10
2013,10,14,01,53,7.10
2013,10,14,01,54,7.10
2013,10,14,01,55,7.10
2013,10,14,01,56,7.10
2013,10,14,01,57,7.10
2013,10,14,01,58,7.10
2013,10,14,01,59,7.10
2013,10,14,02,00,7.10
2013,10,14,02,01,7.00
2013,10,14,02,02,7.00
2013,10,14,02,03,7.00
2013,10,14,02,04,7.00
2013,10,14,02,05,7.00
2013,10,14,02,06,7.00
2013,10,14,02,07,6.90
2013,10,14,02,08,6.90
2013,10,14,02,09,6.90
2013,10,14,02,10,6.90
2013,10,14,02,11,6.90
2013,10,14,02,12,6.90
2013,10,14,02,13,6.90
2013,10,14,02,14,6.80
2013,10,14,02,15,6.80
2013,10,14,02,16,6.80
2013,10,14,02,17,6.80
2013,10,14,02,18,6.80
2013,10,14,02,19,6.80
2013,10,14,02,20,6.80
2013,10,14,02,21,6.80
2013,10,14,02,22,6.80
2013,10,14,02,23,6.80
2013,10,14,02,24,6.80
2013,10,14,02,25,6.80
2013,10,14,02,26,6.80
2013,10,14,02,27,6.80
2013,10,14,02,28,6.80
2013,10,14,02,29,6.80
2013,10,14,02,30,6.80
2013,10,14,02,31,6.80
2013,10,14,02,32,6.80
2013,10,14,02,33,6.80
2013,10,14,02,34,6.80
2013,10,14,02,35,6.80
2013,10,14,02,36,6.80
2013,10,14,02,37,6.80
2013,10,14,02,38,6.80
2013,10,14,02,39,6.80
2013,10,14,02,40,6.70
2013,10,14,02,41,6.70
2013,10,14,02,42,6.70
2013,10,14,02,43,6.70
2013,10,14,02,44,6.70
2013,10,14,02,45,6.70
2013,10,14,02,46,6.70
2013,10,14,02,47,6.70
2013,10,14,02,48,6.70
2013,10,14,02,49,6.70
2013,10,14,02,50,6.70
2013,10,14,02,51,6.70
2013,10,14,02,52,6.70
2013,10,14,02,53,6.70
2013,10,14,02,54,6.70
2013,10,14,02,55,6.70
2013,10,14,02,56,6.70
2013,10,14,02,57,6.70
2013,10,14,02,58,6.70
2013,10,14,02,59,6.70
2013,10,14,03,00,6.70
2013,10,14,03,01,6.70
2013,10,14,03,02,6.70
2013,10,14,03,03,6.70
2013,10,14,03,04,6.70
2013,10,14,03,05,6.70
2013,10,14,03,06,6.70
2013,10,14,03,07,6.60
2013,10,14,03,08,6.60
2013,10,14,03,09,6.60
2013,10,14,03,10,6.60
2013,10,14,03,11,6.60
2013,10,14,03,12,6.60
2013,10,14,03,13,6.60
2013,10,14,03,14,6.60
2013,10,14,03,15,6.60
2013,10,14,03,16,6.60
2013,10,14,03,17,6.60
2013,10,14,03,18,6.60
2013,10,14,03,19,6.60
2013,10,14,03,20,6.60
2013,10,14,03,21,6.60
2013,10,14,03,22,6.50
2013,10,14,03,23,6.50
2013,10,14,03,24,6.50
2013,10,14,03,25,6.50
2013,10,14,03,26,6.50
2013,10,14,03,27,6.50
2013,10,14,03,28,6.50
2013,10,14,03,29,6.50
2013,10,14,03,30,6.50
2013,10,14,03,31,6.50
2013,10,14,03,32,6.50
2013,10,14,03,33,6.50
2013,10,14,03,34,6.50
2013,10,14,03,35,6.50
2013,10,14,03,36,6.50
2013,10,14,03,37,6.50
2013,10,14,03,38,6.50
2013,10,14,03,39,6.50
2013,10,14,03,40,6.50
2013,10,14,03,41,6.50
2013,10,14,03,42,6.50
2013,10,14,03,43,6.50
2013,10,14,03,44,6.50
2013,10,14,03,45,6.50
2013,10,14,03,46,6.50
2013,10,14,03,47,6.50
2013,10,14,03,48,6.50
2013,10,14,03,49,6.50
2013,10,14,03,50,6.50
2013,10,14,03,51,6.50
2013,10,14,03,52,6.50
2013,10,14,03,53,6.50
2013,10,14,03,54,6.50
2013,10,14,03,55,6.50
2013,10,14,03,56,6.50
2013,10,14,03,57,6.50
2013,10,14,03,58,6.50
2013,10,14,03,59,6.50
2013,10,14,04,00,6.50
2013,10,14,04,01,6.50
2013,10,14,04,02,6.50
2013,10,14,04,03,6.40
2013,10,14,04,04,6.40
2013,10,14,04,05,6.40
2013,10,14,04,06,6.40
2013,10,14,04,07,6.40
2013,10,14,04,08,6.40
2013,10,14,04,09,6.40
2013,10,14,04,10,6.40
2013,10,14,04,11,6.40
2013,10,14,04,12,6.40
2013,10,14,04,13,6.40
2013,10,14,04,14,6.40
2013,10,14,04,15,6.50
2013,10,14,04,16,6.50
2013,10,14,04,17,6.50
2013,10,14,04,18,6.50
2013,10,14,04,19,6.50
2013,10,14,04,20,6.50
2013,10,14,04,21,6.50
2013,10,14,04,22,6.40
2013,10,14,04,23,6.40
2013,10,14,04,24,6.40
2013,10,14,04,25,6.40
2013,10,14,04,26,6.40
2013,10,14,04,27,6.40
2013,10,14,04,28,6.40
2013,10,14,04,29,6.40
2013,10,14,04,30,6.40
2013,10,14,04,31,6.50
2013,10,14,04,32,6.50
2013,10,14,04,33,6.50
2013,10,14,04,34,6.50
2013,10,14,04,35,6.40
2013,10,14,04,36,6.40
2013,10,14,04,37,6.40
2013,10,14,04,38,6.40
2013,10,14,04,39,6.40
2013,10,14,04,40,6.40
2013,10,14,04,41,6.40
2013,10,14,04,42,6.40
2013,10,14,04,43,6.40
2013,10,14,04,44,6.40
2013,10,14,04,45,6.40
2013,10,14,04,46,6.40
2013,10,14,04,47,6.40
2013,10,14,04,48,6.40
2013,10,14,04,49,6.40
2013,10,14,04,50,6.50
2013,10,14,04,51,6.50
2013,10,14,04,52,6.50
2013,10,14,04,53,6.50
2013,10,14,04,54,6.50
2013,10,14,04,55,6.50
2013,10,14,04,56,6.50
2013,10,14,04,57,6.50
2013,10,14,04,58,6.50
2013,10,14,04,59,6.50
2013,10,14,05,00,6.50
2013,10,14,05,01,6.50
2013,10,14,05,02,6.60
2013,10,14,05,03,6.60
2013,10,14,05,04,6.60
2013,10,14,05,05,6.60
2013,10,14,05,06,6.60
2013,10,14,05,07,6.60
2013,10,14,05,08,6.60
2013,10,14,05,09,6.60
2013,10,14,05,10,6.60
2013,10,14,05,11,6.60
2013,10,14,05,12,6.60
2013,10,14,05,13,6.60
2013,10,14,05,14,6.60
2013,10,14,05,15,6.60
2013,10,14,05,16,6.60
2013,10,14,05,17,6.60
2013,10,14,05,18,6.60
2013,10,14,05,19,6.60
2013,10,14,05,20,6.60
2013,10,14,05,21,6.60
2013,10,14,05,22,6.60
2013,10,14,05,23,6.70
2013,10,14,05,24,6.70
2013,10,14,05,25,6.70
2013,10,14,05,26,6.70
2013,10,14,05,27,6.70
2013,10,14,05,28,6.70
2013,10,14,05,29,6.70
2013,10,14,05,30,6.70
2013,10,14,05,31,6.70
2013,10,14,05,32,6.70
2013,10,14,05,33,6.70
2013,10,14,05,34,6.70
2013,10,14,05,35,6.70
2013,10,14,05,36,6.70
2013,10,14,05,37,6.70
2013,10,14,05,38,6.70
2013,10,14,05,39,6.70
2013,10,14,05,40,6.70
2013,10,14,05,41,6.70
2013,10,14,05,42,6.70
2013,10,14,05,43,6.70
2013,10,14,05,44,6.70
2013,10,14,05,45,6.70
2013,10,14,05,46,6.70
2013,10,14,05,47,6.70
2013,10,14,05,48,6.70
2013,10,14,05,49,6.70
2013,10,14,05,50,6.70
2013,10,14,05,51,6.80
2013,10,14,05,52,6.80
2013,10,14,05,53,6.80
2013,10,14,05,54,6.80
2013,10,14,05,55,6.80
2013,10,14,05,56,6.90
2013,10,14,05,57,6.90
2013,10,14,05,58,6.90
2013,10,14,05,59,6.90
2013,10,14,06,00,7.00
2013,10,14,06,01,7.00
2013,10,14,06,02,7.10
2013,10,14,06,03,7.10
2013,10,14,06,04,7.10
2013,10,14,06,05,7.10
2013,10,14,06,06,7.10
2013,10,14,06,07,7.20
2013,10,14,06,08,7.20
2013,10,14,06,09,7.20
2013,10,14,06,10,7.20
2013,10,14,06,11,7.20
2013,10,14,06,12,7.20
2013,10,14,06,13,7.20
2013,10,14,06,14,7.20
2013,10,14,06,15,7.20
2013,10,14,06,16,7.20
2013,10,14,06,17,7.20
2013,10,14,06,18,7.20
2013,10,14,06,19,7.20
2013,10,14,06,20,7.20
2013,10,14,06,21,7.20
2013,10,14,06,22,7.20
2013,10,14,06,23,7.20
2013,10,14,06,24,7.20
2013,10,14,06,25,7.20
2013,10,14,06,26,7.20
2013,10,14,06,27,7.20
2013,10,14,06,28,7.20
2013,10,14,06,29,7.20
2013,10,14,06,30,7.20
2013,10,14,06,31,7.20
2013,10,14,06,32,7.20
2013,10,14,06,33,7.20
2013,10,14,06,34,7.20
2013,10,14,06,35,7.20
2013,10,14,06,36,7.20
2013,10,14,06,37,7.20
2013,10,14,06,38,7.20
2013,10,14,06,39,7.20
2013,10,14,06,40,7.30
2013,10,14,06,41,7.40
2013,10,14,06,42,7.50
2013,10,14,06,43,7.60
2013,10,14,06,44,7.70
2013,10,14,06,45,7.80
2013,10,14,06,46,7.90
2013,10,14,06,47,8.00
2013,10,14,06,48,8.10
2013,10,14,06,49,8.20
2013,10,14,06,50,8.30
2013,10,14,06,51,8.40
2013,10,14,06,52,8.50
2013,10,14,06,53,8.60
2013,10,14,06,54,8.60
2013,10,14,06,55,8.70
2013,10,14,06,56,8.70
2013,10,14,06,57,8.70
2013,10,14,06,58,8.80
2013,10,14,06,59,8.80
2013,10,14,07,00,8.80
2013,10,14,07,01,8.90
2013,10,14,07,02,8.90
2013,10,14,07,03,8.90
2013,10,14,07,04,9.00
2013,10,14,07,05,9.00
2013,10,14,07,06,9.10
2013,10,14,07,07,9.10
2013,10,14,07,08,9.10
2013,10,14,07,09,9.10
2013,10,14,07,10,9.20
2013,10,14,07,11,9.20
2013,10,14,07,12,9.20
2013,10,14,07,13,9.20
2013,10,14,07,14,9.20
2013,10,14,07,15,9.20
2013,10,14,07,16,9.20
2013,10,14,07,17,9.20
2013,10,14,07,18,9.20
2013,10,14,07,19,9.20
2013,10,14,07,20,9.20
2013,10,14,07,21,9.20
2013,10,14,07,22,9.20
2013,10,14,07,23,9.30
2013,10,14,07,24,9.30
2013,10,14,07,25,9.30
2013,10,14,07,26,9.30
2013,10,14,07,27,9.30
2013,10,14,07,28,9.30
2013,10,14,07,29,9.30
2013,10,14,07,30,9.30
2013,10,14,07,31,9.30
2013,10,14,07,32,9.30
2013,10,14,07,33,9.30
2013,10,14,07,34,9.30
2013,10,14,07,35,9.30
2013,10,14,07,36,9.30
2013,10,14,07,37,9.30
2013,10,14,07,38,9.30
2013,10,14,07,39,9.30
2013,10,14,07,40,9.30
2013,10,14,07,41,9.30
2013,10,14,07,42,9.30
2013,10,14,07,43,9.30
2013,10,14,07,44,9.30
2013,10,14,07,45,9.20
2013,10,14,07,46,9.20
2013,10,14,07,47,9.20
2013,10,14,07,48,9.20
2013,10,14,07,49,9.20
2013,10,14,07,50,9.20
2013,10,14,07,51,9.20
2013,10,14,07,52,9.20
2013,10,14,07,53,9.20
2013,10,14,07,54,9.20
2013,10,14,07,55,9.20
2013,10,14,07,56,9.20
2013,10,14,07,57,9.20
2013,10,14,07,58,9.20
2013,10,14,07,59,9.20
2013,10,14,08,00,9.20
2013,10,14,08,01,9.20
2013,10,14,08,02,9.20
2013,10,14,08,03,9.20
2013,10,14,08,04,9.20
2013,10,14,08,05,9.20
2013,10,14,08,06,9.20
2013,10,14,08,07,9.20
2013,10,14,08,08,9.20
2013,10,14,08,09,9.20
2013,10,14,08,10,9.30
2013,10,14,08,11,9.30
2013,10,14,08,12,9.30
2013,10,14,08,13,9.30
2013,10,14,08,14,9.30
2013,10,14,08,15,9.30
2013,10,14,08,16,9.40
2013,10,14,08,17,9.40
2013,10,14,08,18,9.40
2013,10,14,08,19,9.40
2013,10,14,08,20,9.50
2013,10,14,08,21,9.50
2013,10,14,08,22,9.60
2013,10,14,08,23,9.60
2013,10,14,08,24,9.60
2013,10,14,08,25,9.60
2013,10,14,08,26,9.70
2013,10,14,08,27,9.70
2013,10,14,08,28,9.70
2013,10,14,08,29,9.70
2013,10,14,08,30,9.80
2013,10,14,08,31,9.80
2013,10,14,08,32,9.80
2013,10,14,08,33,9.80
2013,10,14,08,34,9.80
2013,10,14,08,35,9.80
2013,10,14,08,36,9.80
2013,10,14,08,37,9.80
2013,10,14,08,38,9.80
2013,10,14,08,39,9.80
2013,10,14,08,40,9.90
2013,10,14,08,41,9.90
2013,10,14,08,42,9.90
2013,10,14,08,43,9.90
2013,10,14,08,44,9.90
2013,10,14,08,45,9.90
2013,10,14,08,46,9.90
2013,10,14,08,47,10.00
2013,10,14,08,48,10.00
2013,10,14,08,49,10.00
2013,10,14,08,50,10.00
2013,10,14,08,51,10.00
2013,10,14,08,52,10.00
2013,10,14,08,53,10.10
2013,10,14,08,54,10.10
2013,10,14,08,55,10.10
2013,10,14,08,56,10.10
2013,10,14,08,57,10.10
2013,10,14,08,58,10.10
2013,10,14,08,59,10.00
2013,10,14,09,00,10.00
2013,10,14,09,01,10.00
2013,10,14,09,02,10.00
2013,10,14,09,03,10.00
2013,10,14,09,04,10.00
2013,10,14,09,05,10.10
2013,10,14,09,06,10.10
2013,10,14,09,07,10.10
2013,10,14,09,08,10.00
2013,10,14,09,09,10.00
2013,10,14,09,10,10.00
2013,10,14,09,11,10.10
2013,10,14,09,12,10.10
2013,10,14,09,13,10.10
2013,10,14,09,14,10.10
2013,10,14,09,15,10.10
2013,10,14,09,16,10.10
2013,10,14,09,17,10.10
2013,10,14,09,18,10.20
2013,10,14,09,19,10.20
2013,10,14,09,20,10.20
2013,10,14,09,21,10.20
2013,10,14,09,22,10.20
2013,10,14,09,23,10.20
2013,10,14,09,24,10.20
2013,10,14,09,25,10.20
2013,10,14,09,26,10.20
2013,10,14,09,27,10.20
2013,10,14,09,28,10.30
2013,10,14,09,29,10.30
2013,10,14,09,30,10.30
2013,10,14,09,31,10.30
2013,10,14,09,32,10.30
2013,10,14,09,33,10.30
2013,10,14,09,34,10.30
2013,10,14,09,35,10.40
2013,10,14,09,36,10.40
2013,10,14,09,37,10.40
2013,10,14,09,38,10.40
2013,10,14,09,39,10.40
2013,10,14,09,40,10.40
2013,10,14,09,41,10.40
2013,10,14,09,42,10.40
2013,10,14,09,43,10.40
2013,10,14,09,44,10.40
2013,10,14,09,45,10.40
2013,10,14,09,46,10.40
2013,10,14,09,47,10.40
2013,10,14,09,48,10.40
2013,10,14,09,49,10.40
2013,10,14,09,50,10.50
2013,10,14,09,51,10.50
2013,10,14,09,52,10.50
2013,10,14,09,53,10.50
2013,10,14,09,54,10.50
2013,10,14,09,55,10.60
2013,10,14,09,56,10.60
2013,10,14,09,57,10.60
2013,10,14,09,58,10.70
2013,10,14,09,59,10.70
2013,10,14,10,00,10.80
2013,10,14,10,01,10.80
2013,10,14,10,02,10.80
2013,10,14,10,03,10.80
2013,10,14,10,04,10.80
2013,10,14,10,05,10.80
2013,10,14,10,06,10.80
2013,10,14,10,07,10.80
2013,10,14,10,08,10.80
2013,10,14,10,09,10.80
2013,10,14,10,10,10.80
2013,10,14,10,11,10.90
2013,10,14,10,12,11.00
2013,10,14,10,13,11.00
2013,10,14,10,14,11.00
2013,10,14,10,15,11.00
2013,10,14,10,16,11.10
2013,10,14,10,17,11.10
2013,10,14,10,18,11.10
2013,10,14,10,19,11.10
2013,10,14,10,20,11.10
2013,10,14,10,21,11.10
2013,10,14,10,22,11.10
2013,10,14,10,23,11.10
2013,10,14,10,24,11.20
2013,10,14,10,25,11.20
2013,10,14,10,26,11.20
2013,10,14,10,27,11.20
2013,10,14,10,28,11.20
2013,10,14,10,29,11.20
2013,10,14,10,30,11.20
2013,10,14,10,31,11.20
2013,10,14,10,32,11.20
2013,10,14,10,33,11.20
2013,10,14,10,34,11.10
2013,10,14,10,35,11.00
2013,10,14,10,36,11.00
2013,10,14,10,37,11.00
2013,10,14,10,38,11.00
2013,10,14,10,39,11.00
2013,10,14,10,40,11.00
2013,10,14,10,41,11.00
2013,10,14,10,42,11.10
2013,10,14,10,43,11.10
2013,10,14,10,44,11.10
2013,10,14,10,45,11.10
2013,10,14,10,46,11.10
2013,10,14,10,47,11.10
2013,10,14,10,48,11.10
2013,10,14,10,49,11.10
2013,10,14,10,50,11.10
2013,10,14,10,51,11.00
2013,10,14,10,52,11.00
2013,10,14,10,53,10.90
2013,10,14,10,54,10.90
2013,10,14,10,55,10.90
2013,10,14,10,56,10.90
2013,10,14,10,57,10.90
2013,10,14,10,58,10.90
2013,10,14,10,59,11.00
2013,10,14,11,00,11.00
2013,10,14,11,01,11.00
2013,10,14,11,02,11.00
2013,10,14,11,03,11.00
2013,10,14,11,04,11.00
2013,10,14,11,05,11.00
2013,10,14,11,06,11.00
2013,10,14,11,07,11.00
2013,10,14,11,08,11.10
2013,10,14,11,09,11.10
2013,10,14,11,10,11.10
2013,10,14,11,11,11.10
2013,10,14,11,12,11.10
2013,10,14,11,13,11.10
2013,10,14,11,14,11.20
2013,10,14,11,15,11.20
2013,10,14,11,16,11.20
2013,10,14,11,17,11.30
2013,10,14,11,18,11.30
2013,10,14,11,19,11.30
2013,10,14,11,20,11.30
2013,10,14,11,21,11.40
2013,10,14,11,22,11.40
2013,10,14,11,23,11.40
2013,10,14,11,24,11.40
2013,10,14,11,25,11.40
2013,10,14,11,26,11.40
2013,10,14,11,27,11.40
2013,10,14,11,28,11.50
2013,10,14,11,29,11.50
2013,10,14,11,30,11.50
2013,10,14,11,31,11.60
2013,10,14,11,32,11.60
2013,10,14,11,33,11.60
2013,10,14,11,34,11.60
2013,10,14,11,35,11.60
2013,10,14,11,36,11.60
2013,10,14,11,37,11.60
2013,10,14,11,38,11.60
2013,10,14,11,39,11.60
2013,10,14,11,40,11.60
2013,10,14,11,41,11.60
2013,10,14,11,42,11.60
2013,10,14,11,43,11.60
2013,10,14,11,44,11.60
2013,10,14,11,45,11.60
2013,10,14,11,46,11.60
2013,10,14,11,47,11.60
2013,10,14,11,48,11.70
2013,10,14,11,49,11.70
2013,10,14,11,50,11.80
2013,10,14,11,51,11.80
2013,10,14,11,52,11.80
2013,10,14,11,53,11.80
2013,10,14,11,54,11.90
2013,10,14,11,55,11.90
2013,10,14,11,56,11.90
2013,10,14,11,57,12.00
2013,10,14,11,58,12.10
2013,10,14,11,59,12.10
2013,10,14,12,00,12.20
2013,10,14,12,01,12.20
2013,10,14,12,02,12.30
2013,10,14,12,03,12.30
2013,10,14,12,04,12.30
2013,10,14,12,05,12.30
2013,10,14,12,06,12.30
2013,10,14,12,07,12.30
2013,10,14,12,08,12.30
2013,10,14,12,09,12.30
2013,10,14,12,10,12.30
2013,10,14,12,11,12.30
2013,10,14,12,12,12.30
2013,10,14,12,13,12.30
2013,10,14,12,14,12.20
2013,10,14,12,15,12.20
2013,10,14,12,16,12.20
2013,10,14,12,17,12.30
2013,10,14,12,18,12.30
2013,10,14,12,19,12.30
2013,10,14,12,20,12.30
2013,10,14,12,21,12.30
2013,10,14,12,22,12.30
2013,10,14,12,23,12.30
2013,10,14,12,24,12.30
2013,10,14,12,25,12.30
2013,10,14,12,26,12.30
2013,10,14,12,27,12.30
2013,10,14,12,28,12.30
2013,10,14,12,29,12.30
2013,10,14,12,30,12.30
2013,10,14,12,31,12.30
2013,10,14,12,32,12.20
2013,10,14,12,33,12.20
2013,10,14,12,34,12.20
2013,10,14,12,35,12.20
2013,10,14,12,36,12.20
2013,10,14,12,37,12.30
2013,10,14,12,38,12.30
2013,10,14,12,39,12.30
2013,10,14,12,40,12.30
2013,10,14,12,41,12.40
2013,10,14,12,42,12.40
2013,10,14,12,43,12.40
2013,10,14,12,44,12.50
2013,10,14,12,45,12.50
2013,10,14,12,46,12.50
2013,10,14,12,47,12.40
2013,10,14,12,48,12.40
2013,10,14,12,49,12.40
2013,10,14,12,50,12.40
2013,10,14,12,51,12.50
2013,10,14,12,52,12.50
2013,10,14,12,53,12.60
2013,10,14,12,54,12.60
2013,10,14,12,55,12.60
2013,10,14,12,56,12.60
2013,10,14,12,57,12.60
2013,10,14,12,58,12.60
2013,10,14,12,59,12.60
2013,10,14,13,00,12.70
2013,10,14,13,01,12.70
2013,10,14,13,02,12.70
2013,10,14,13,03,12.60
2013,10,14,13,04,12.60
2013,10,14,13,05,12.60
2013,10,14,13,06,12.70
2013,10,14,13,07,12.70
2013,10,14,13,08,12.70
2013,10,14,13,09,12.70
2013,10,14,13,10,12.80
2013,10,14,13,11,12.80
2013,10,14,13,12,12.80
2013,10,14,13,13,12.80
2013,10,14,13,14,12.80
2013,10,14,13,15,12.80
2013,10,14,13,16,12.80
2013,10,14,13,17,12.80
2013,10,14,13,18,12.70
2013,10,14,13,19,12.70
2013,10,14,13,20,12.70
2013,10,14,13,21,12.70
2013,10,14,13,22,12.60
2013,10,14,13,23,12.60
2013,10,14,13,24,12.60
2013,10,14,13,25,12.60
2013,10,14,13,26,12.70
2013,10,14,13,27,12.70
2013,10,14,13,28,12.70
2013,10,14,13,29,12.80
2013,10,14,13,30,12.80
2013,10,14,13,31,12.80
2013,10,14,13,32,12.80
2013,10,14,13,33,12.90
2013,10,14,13,34,12.90
2013,10,14,13,35,12.90
2013,10,14,13,36,12.90
2013,10,14,13,37,12.90
2013,10,14,13,38,12.90
2013,10,14,13,39,13.00
2013,10,14,13,40,13.10
2013,10,14,13,41,13.10
2013,10,14,13,42,13.10
2013,10,14,13,43,13.20
2013,10,14,13,44,13.30
2013,10,14,13,45,13.30
2013,10,14,13,46,13.30
2013,10,14,13,47,13.30
2013,10,14,13,48,13.30
2013,10,14,13,49,13.30
2013,10,14,13,50,13.30
2013,10,14,13,51,13.30
2013,10,14,13,52,13.30
2013,10,14,13,53,13.30
2013,10,14,13,54,13.30
2013,10,14,13,55,13.20
2013,10,14,13,56,13.20
2013,10,14,13,57,13.20
2013,10,14,13,58,13.10
2013,10,14,13,59,13.20
2013,10,14,14,00,13.20
2013,10,14,14,01,13.20
2013,10,14,14,02,13.20
2013,10,14,14,03,13.20
2013,10,14,14,04,13.20
2013,10,14,14,05,13.20
2013,10,14,14,06,13.30
2013,10,14,14,07,13.30
2013,10,14,14,08,13.30
2013,10,14,14,09,13.40
2013,10,14,14,10,13.40
2013,10,14,14,11,13.40
2013,10,14,14,12,13.40
2013,10,14,14,13,13.40
2013,10,14,14,14,13.40
2013,10,14,14,15,13.40
2013,10,14,14,16,13.40
2013,10,14,14,17,13.50
2013,10,14,14,18,13.40
2013,10,14,14,19,13.40
2013,10,14,14,20,13.40
2013,10,14,14,21,13.40
2013,10,14,14,22,13.30
2013,10,14,14,23,13.30
2013,10,14,14,24,13.30
2013,10,14,14,25,13.30
2013,10,14,14,26,13.30
2013,10,14,14,27,13.30
2013,10,14,14,28,13.30
2013,10,14,14,29,13.30
2013,10,14,14,30,13.30
2013,10,14,14,31,13.30
2013,10,14,14,32,13.30
2013,10,14,14,33,13.30
2013,10,14,14,34,13.30
2013,10,14,14,35,13.30
2013,10,14,14,36,13.30
2013,10,14,14,37,13.30
2013,10,14,14,38,13.30
2013,10,14,14,39,13.30
2013,10,14,14,40,13.30
2013,10,14,14,41,13.30
2013,10,14,14,42,13.30
2013,10,14,14,43,13.40
2013,10,14,14,44,13.40
2013,10,14,14,45,13.50
2013,10,14,14,46,13.50
2013,10,14,14,47,13.60
2013,10,14,14,48,13.60
2013,10,14,14,49,13.60
2013,10,14,14,50,13.60
2013,10,14,14,51,13.60
2013,10,14,14,52,13.60
2013,10,14,14,53,13.60
2013,10,14,14,54,13.50
2013,10,14,14,55,13.50
2013,10,14,14,56,13.40
2013,10,14,14,57,13.40
2013,10,14,14,58,13.40
2013,10,14,14,59,13.40
2013,10,14,15,00,13.40
2013,10,14,15,01,13.40
2013,10,14,15,02,13.50
2013,10,14,15,03,13.50
2013,10,14,15,04,13.50
2013,10,14,15,05,13.50
2013,10,14,15,06,13.60
2013,10,14,15,07,13.60
2013,10,14,15,08,13.60
2013,10,14,15,09,13.60
2013,10,14,15,10,13.60
2013,10,14,15,11,13.70
2013,10,14,15,12,13.70
2013,10,14,15,13,13.70
2013,10,14,15,14,13.80
2013,10,14,15,15,13.80
2013,10,14,15,16,13.90
2013,10,14,15,17,13.90
2013,10,14,15,18,14.00
2013,10,14,15,19,14.00
2013,10,14,15,20,14.10
2013,10,14,15,21,14.10
2013,10,14,15,22,14.10
2013,10,14,15,23,14.20
2013,10,14,15,24,14.20
2013,10,14,15,25,14.20
2013,10,14,15,26,14.20
2013,10,14,15,27,14.20
2013,10,14,15,28,14.20
2013,10,14,15,29,14.20
2013,10,14,15,30,14.20
2013,10,14,15,31,14.30
2013,10,14,15,32,14.30
2013,10,14,15,33,14.30
2013,10,14,15,34,14.30
2013,10,14,15,35,14.40
2013,10,14,15,36,14.30
2013,10,14,15,37,14.30
2013,10,14,15,38,14.40
2013,10,14,15,39,14.40
2013,10,14,15,40,14.30
2013,10,14,15,41,14.30
2013,10,14,15,42,14.30
2013,10,14,15,43,14.30
2013,10,14,15,44,14.30
2013,10,14,15,45,14.40
2013,10,14,15,46,14.40
2013,10,14,15,47,14.40
2013,10,14,15,48,14.40
2013,10,14,15,49,14.40
2013,10,14,15,50,14.30
2013,10,14,15,51,14.30
2013,10,14,15,52,14.30
2013,10,14,15,53,14.30
2013,10,14,15,54,14.30
2013,10,14,15,55,14.30
2013,10,14,15,56,14.30
2013,10,14,15,57,14.30
2013,10,14,15,58,14.30
2013,10,14,15,59,14.20
2013,10,14,16,00,14.20
2013,10,14,16,01,14.20
2013,10,14,16,02,14.20
2013,10,14,16,03,14.20
2013,10,14,16,04,14.30
2013,10,14,16,05,14.30
2013,10,14,16,06,14.30
2013,10,14,16,07,14.30
2013,10,14,16,08,14.30
2013,10,14,16,09,14.30
2013,10,14,16,10,14.30
2013,10,14,16,11,14.30
2013,10,14,16,12,14.30
2013,10,14,16,13,14.30
2013,10,14,16,14,14.30
2013,10,14,16,15,14.30
2013,10,14,16,16,14.20
2013,10,14,16,17,14.30
2013,10,14,16,18,14.30
2013,10,14,16,19,14.30
2013,10,14,16,20,14.30
2013,10,14,16,21,14.30
2013,10,14,16,22,14.30
2013,10,14,16,23,14.30
2013,10,14,16,24,14.30
2013,10,14,16,25,14.30
2013,10,14,16,26,14.40
2013,10,14,16,27,14.40
2013,10,14,16,28,14.40
2013,10,14,16,29,14.40
2013,10,14,16,30,14.40
2013,10,14,16,31,14.40
2013,10,14,16,32,14.30
2013,10,14,16,33,14.30
2013,10,14,16,34,14.30
2013,10,14,16,35,14.40
2013,10,14,16,36,14.40
2013,10,14,16,37,14.50
2013,10,14,16,38,14.60
2013,10,14,16,39,14.60
2013,10,14,16,40,14.70
2013,10,14,16,41,14.80
2013,10,14,16,42,14.80
2013,10,14,16,43,14.90
2013,10,14,16,44,15.00
2013,10,14,16,45,15.00
2013,10,14,16,46,15.10
2013,10,14,16,47,15.10
2013,10,14,16,48,15.20
2013,10,14,16,49,15.20
2013,10,14,16,50,15.30
2013,10,14,16,51,15.30
2013,10,14,16,52,15.30
2013,10,14,16,53,15.20
2013,10,14,16,54,15.20
2013,10,14,16,55,15.20
2013,10,14,16,56,15.20
2013,10,14,16,57,15.20
2013,10,14,16,58,15.20
2013,10,14,16,59,15.30
2013,10,14,17,00,15.30
2013,10,14,17,01,15.30
2013,10,14,17,02,15.30
2013,10,14,17,03,15.30
2013,10,14,17,04,15.30
2013,10,14,17,05,15.20
2013,10,14,17,06,15.10
2013,10,14,17,07,15.00
2013,10,14,17,08,15.00
2013,10,14,17,09,14.90
2013,10,14,17,10,14.80
2013,10,14,17,11,14.80
2013,10,14,17,12,14.70
2013,10,14,17,13,14.70
2013,10,14,17,14,14.60
2013,10,14,17,15,14.60
2013,10,14,17,16,14.50
2013,10,14,17,17,14.50
2013,10,14,17,18,14.40
2013,10,14,17,19,14.40
2013,10,14,17,20,14.40
2013,10,14,17,21,14.30
2013,10,14,17,22,14.30
2013,10,14,17,23,14.30
2013,10,14,17,24,14.30
2013,10,14,17,25,14.30
2013,10,14,17,26,14.30
2013,10,14,17,27,14.30
2013,10,14,17,28,14.30
2013,10,14,17,29,14.30
2013,10,14,17,30,14.30
2013,10,14,17,31,14.30
2013,10,14,17,32,14.30
2013,10,14,17,33,14.20
2013,10,14,17,34,14.20
2013,10,14,17,35,14.20
2013,10,14,17,36,14.10
2013,10,14,17,37,14.10
2013,10,14,17,38,14.10
2013,10,14,17,39,14.00
2013,10,14,17,40,14.00
2013,10,14,17,41,14.00
2013,10,14,17,42,13.90